Location: Majestic Skies Ranch
(34.0000°N, 105.9300°W)
Time: 07:04:05
(UTC-06:00)

ISS - Visible Passes

Search period start: 23 October 2014 00:00
Search period end: 02 November 2014 00:00
Orbit: 413 x 416 km, 51.6° (Epoch: 23 October)

Date Brightness Start Highest point End Pass type
(mag) Time Alt. Az. Time Alt. Az. Time Alt. Az.
23 Oct -1.1 20:02:30 10° NNW 20:03:48 19° NNW 20:03:48 19° NNW visible
24 Oct -1.6 19:13:47 10° NNW 19:16:14 19° NNE 19:16:58 18° NE visible
25 Oct -2.5 20:00:35 10° NW 20:03:08 50° NW 20:03:08 50° NW visible
26 Oct -3.0 19:11:27 10° NW 19:14:42 48° NE 19:16:36 21° ESE visible
27 Oct -1.1 19:59:13 10° WNW 20:01:56 23° SW 20:03:14 19° SSW visible
28 Oct -2.3 19:09:32 10° WNW 19:12:45 47° SW 19:15:57 10° SSE visible
30 Oct -0.1 19:08:33 10° W 19:10:27 15° SW 19:12:21 10° SSW visible
